Flag for Japan Weather past 2 weeks in Yokosuka, Japan

Now
43 °F

Passing clouds.


Feels Like: 36 °F
Forecast: 37 / 43 °F
Wind: 12 mph from East

Location: Tokyo International Airport

Current Time: Jan 29, 2015 at 9:40:10 PM

Latest Report: Jan 29, 2015 at 9:00 PM


Visibility: N/A

Pressure: 30.30 "Hg

Humidity: 66%

Dew point: 32 °F

Location of YokosukaLocation

Historic Weather in Yokosuka — Graph

°F

Yokosuka temperature yesterday

Maximum temperature yesterday: 46 °F (at 12:48 PM)
Minimum temperature yesterday: 37 °F (at 11:00 PM)
Average temperature yesterday: 43 °F

Past Weeks' High & Low Weather Summary

 TemperatureHumidityPressure
High57 °F (Jan 26, 7:30 PM)94% (Jan 16, 11:30 PM)30.42 "Hg (Jan 16, 11:30 PM)
Low34 °F (Jan 19, 5:00 AM)21% (Jan 18, 11:00 AM)29.50 "Hg (Jan 23, 1:00 AM)
Average44 °F59%30.00 "Hg
* Reported Jan 14 8:00 PM — Jan 29 8:30 PM, Yokosuka, Weather by CustomWeather, © 2014

Note: Actual official high and low records may vary slightly from our data, if they occured in-between our weather recording intervals... More about our weather records

Advertising

Yokosuka weather history for previous 24 hours

 ConditionsComfort  
Time TempWeatherWind HumidityBarometerVisibility
8:30 PM
Jan 29
43 °FPartly cloudy.10 mph57%30.33 "HgN/A
8:00 PM43 °FPartly cloudy.14 mph57%30.33 "HgN/A
7:30 PM43 °FPartly cloudy.14 mph61%30.30 "HgN/A
7:00 PM43 °FPartly cloudy.16 mph61%30.30 "HgN/A
6:30 PM43 °FPartly cloudy.18 mph61%30.27 "HgN/A
6:00 PM43 °FPartly cloudy.6 mph49%30.30 "HgN/A
5:30 PM43 °FPassing clouds.5 mph46%30.30 "HgN/A
5:00 PM43 °FBroken clouds.3 mph42%30.30 "HgN/A
4:30 PM43 °FPartly sunny.1 mph34%30.30 "HgN/A
4:00 PM43 °FPartly sunny.1 mph36%30.27 "HgN/A
3:30 PM43 °FPartly sunny.2 mph34%30.27 "HgN/A
3:00 PM43 °FPartly sunny.6 mph36%30.27 "HgN/A
2:30 PM43 °FPartly sunny.6 mph34%30.27 "HgN/A
2:00 PM43 °FPartly sunny.9 mph36%30.27 "HgN/A
1:30 PM41 °FScattered clouds.10 mph45%30.27 "HgN/A
1:00 PM43 °FPassing clouds.9 mph36%30.27 "HgN/A
12:30 PM43 °FPassing clouds.8 mph39%30.27 "HgN/A
12:00 PM41 °FPassing clouds.8 mph39%30.30 "HgN/A
11:30 AM41 °FPassing clouds.8 mph36%30.30 "HgN/A
11:00 AM41 °FPassing clouds.3 mph36%30.33 "HgN/A
10:30 AM39 °FPassing clouds.8 mph36%30.33 "HgN/A
10:00 AM39 °FPassing clouds.10 mph39%30.36 "HgN/A
9:30 AM39 °FPassing clouds.12 mph39%30.36 "HgN/A
9:00 AM39 °FPassing clouds.10 mph42%30.36 "HgN/A
8:30 AM37 °FPassing clouds.13 mph38%30.36 "HgN/A
8:00 AM37 °FPassing clouds.13 mph45%30.36 "HgN/A
7:30 AM36 °FPassing clouds.12 mph44%30.33 "HgN/A
7:00 AM36 °FPassing clouds.12 mph52%30.33 "HgN/A
6:30 AM34 °FPassing clouds.12 mph51%30.30 "HgN/A
6:00 AM36 °FPassing clouds.12 mph52%30.30 "HgN/A
5:30 AM36 °FPassing clouds.13 mph48%30.27 "HgN/A
5:00 AM36 °FPassing clouds.12 mph48%30.27 "HgN/A
4:30 AM36 °FPassing clouds.12 mph48%30.24 "HgN/A
4:00 AM36 °FPassing clouds.17 mph41%30.24 "HgN/A
3:30 AM37 °FPassing clouds.18 mph45%30.24 "HgN/A
3:00 AM37 °FPassing clouds.16 mph41%30.24 "HgN/A
2:30 AM37 °FClear.20 mph48%30.24 "Hg10 mi
2:00 AM37 °FClear.17 mph45%30.24 "Hg10 mi
1:30 AM37 °FClear.20 mph45%30.21 "Hg10 mi
1:00 AM37 °FClear.17 mph48%30.21 "Hg10 mi
12:30 AM37 °FClear.14 mph45%30.21 "Hg10 mi
12:00 AM37 °FPassing clouds.17 mph45%30.21 "HgN/A
11:30 PM
Jan 28
37 °FClear.14 mph41%30.21 "Hg10 mi
11:00 PM37 °FPassing clouds.10 mph41%30.21 "HgN/A
10:30 PM39 °FClear.14 mph39%30.21 "Hg10 mi
10:00 PM39 °FClear.14 mph36%30.21 "Hg10 mi
9:30 PM39 °FClear.15 mph42%30.18 "Hg10 mi
9:00 PM39 °FClear.13 mph39%30.18 "Hg10 mi
Weather by CustomWeather, © 2014

See weather overviewHow to use our weather pages